Regional Weather Roundup
Issued by NWS

Home | Current Version | Previous Version | Graphics & Text | Print | Product List | Glossary On
Versions: 1 2 3 4 5 6 7 8 9 10 11 12 13 14 15 16 17 18 19 20 21 22 23 24 25 26 27 28 29 30 31 32 33 34 35 36 37 38 39 40 41 42 43 44 45 46 47 48 49 50
000
ASUS45 KABQ 241210
RWRNM
WEATHER ROUNDUP FOR NEW MEXICO
NATIONAL WEATHER SERVICE ALBUQUERQUE NM
600 AM MDT THU APR 24 2014

NOTE: "FAIR" MEANS FEW OR NO CLOUDS BELOW 12,000 FEET AGL WITH NO
       SIGNIFICANT WEATHER OR OBSTRUCTIONS TO VISION.

      THIS PRODUCT IS RELEASED AS TWO VERSIONS.  ONE VERSION NEAR
      THE TOP OF THE HOUR CONTAINING PRELIMINARY DATA FROM ALBUQUERQUE
      AND OTHER STATIONS.  A FINAL VERSION WITH ADDITIONAL DATA IS
      ISSUED ABOUT 10 MINUTES AFTER THE HOUR.

NMZ501-503-504-510>518-241300-
NORTHWEST PLATEAU/NORTHCENTRAL MOUNTAINS

CITY           SKY/WX    TMP DP  RH WIND       PRES   REMARKS
FARMINGTON     CLEAR     33  10  38 VRB3      30.08R
6HR MIN TEMP:  33; 6HR MAX TEMP:  46;

LOS ALAMOS     CLEAR     37   7  28 CALM      30.10R
SANTA FE       CLEAR     34   7  32 N9        30.06R WCI  27
6HR MIN TEMP:  32; 6HR MAX TEMP:  50;

TAOS           CLEAR     25  10  54 W8        30.12R WCI  16
ANGEL FIRE     FAIR      23  15  71 CALM      30.11R

$$
NMZ402-403-502-505>509-241300-
WESTCENTRAL MOUNTAINS/SOUTHWEST MOUNTAINS

CITY           SKY/WX    TMP DP  RH WIND       PRES   REMARKS
GALLUP         CLEAR     24   6  46 CALM      30.12S
6HR MIN TEMP:  22; 6HR MAX TEMP:  39;

GRANTS         PTCLDY    30   9  40 N5        30.14R WCI  26
SILVER CITY    CLEAR     39  12  33 NW12      30.09R WCI  32

$$
NMZ407-409-411-412-241300-
SOUTHERN DESERTS

CITY           SKY/WX    TMP DP  RH WIND       PRES   REMARKS
LORDSBURG      FAIR      43  14  31 W6        30.04R
DEMING         CLEAR     47  13  25 SW12      30.02R
6HR MIN TEMP:  45; 6HR MAX TEMP:  61;

LAS CRUCES     CLEAR     49   8  19 CALM      30.02R
HOLLOMAN AFB   CLEAR     49  13  23 N12       29.99R
ALAMOGORDO     CLEAR     54  10  17 N13       29.99R
T OR C         CLEAR     49  11  21 NW8       30.04R
6HR MIN TEMP:  48; 6HR MAX TEMP:  60;


$$
NMZ519>523-241300-
CENTRAL VALLEYS/CENTRAL HIGHLANDS

CITY           SKY/WX    TMP DP  RH WIND       PRES   REMARKS
ALBUQUERQUE    CLEAR     48   9  20 NW18G25   30.08R
6HR MIN TEMP:  44; 6HR MAX TEMP:  54;

DOUBLE EAGLE   CLEAR     39   9  28 N13       30.10R WCI  32
MORIARTY ARPT  FAIR      35  10  34 NW8       30.06S WCI  29
6HR MIN TEMP:  35; 6HR MAX TEMP:  49;

CLINES CORNERS CLEAR     36  10  34 NW10      30.05R WCI  28
6HR MIN TEMP:  35; 6HR MAX TEMP:  46;

BELEN          FAIR      38  11  32 N8        30.08S WCI  32
6HR MIN TEMP:  37; 6HR MAX TEMP:  53;

SOCORRO        FAIR      46  13  25 N7        30.08R
6HR MIN TEMP:  44; 6HR MAX TEMP:  57;


$$
NMZ524>526-539-540-241300-
SOUTHCENTRAL MOUNTAINS

CITY           SKY/WX    TMP DP  RH WIND       PRES   REMARKS
RUIDOSO        CLEAR     45   9  23 NW16G29   30.08R

$$
NMZ527>531-241300-
NORTHEAST HIGHLANDS/NORTHEAST PLAINS

CITY           SKY/WX    TMP DP  RH WIND       PRES   REMARKS
LAS VEGAS      CLEAR     30  26  85 E12       30.04R WCI  20
6HR MIN TEMP:  30; 6HR MAX TEMP:  48;

RATON          CLEAR     36  27  69 N8        30.04R WCI  30
6HR MIN TEMP:  36; 6HR MAX TEMP:  48;

CLAYTON        PTCLDY    39  33  79 NW12      29.99R WCI  32
6HR MIN TEMP:  39; 6HR MAX TEMP:  59; 6HR PCP:  0.01;


$$
NMZ532>537-241300-
EASTCENTRAL PLAINS

CITY           SKY/WX    TMP DP  RH WIND       PRES   REMARKS
TUCUMCARI      CLOUDY    50  33  52 N16       29.99R
6HR MIN TEMP:  50; 6HR MAX TEMP:  66;

CANNON AFB     PTCLDY    48  32  54 N12       29.99R HAZE
6HR MIN TEMP:  48; 6HR MAX TEMP:  66;

CLOVIS AIRPORT MOCLDY    46  30  53 N16       30.01R

$$
NMZ028-029-538-241300-
SOUTHEAST PLAINS

CITY           SKY/WX    TMP DP  RH WIND       PRES   REMARKS
ROSWELL        CLEAR     55  14  19 N7        29.99R
6HR MIN TEMP:  54; 6HR MAX TEMP:  71;

ARTESIA        CLEAR     48  19  32 N10       29.97R
CARLSBAD       CLEAR     55  25  31 VRB3      29.95R
6HR MIN TEMP:  50; 6HR MAX TEMP:  65;

HOBBS          CLEAR     57  14  18 NW15G23   29.95


$$



USA.gov is the U.S. government's official web portal to all federal, state and local government web resources and services.